Location: Forst
(46.9333°N, 15.4333°E)
Time: 19:14:39
(UTC+00:00)

CZ-4B R/B - Pass Details

Date: 01 December 2020
Orbit: 809 x 881 km, 99.1° (Epoch: 27 January)

Event Time Altitude Azimuth Distance (km) Brightness Sun altitude
Rises 16:01:32 0° 156° (SSE) 3,337 6.3 -8.4°
Reaches altitude 10° 16:03:52 10° 155° (SSE) 2,402 5.6 -8.8°
Maximum altitude 16:09:08 72° 72° (ENE) 857 3.1 -9.6°
Drops below altitude 10° 16:14:25 10° 349° (N) 2,406 5.5 -10.5°
Sets 16:16:46 0° 347° (NNW) 3,343 6.2 -10.8°
